User: anonymous   Login
Location: Unspecified
(0.0000°N, 0.0000°E)
Time: 14:37:40
(UTC+00:00)
Language:

Tiungsat 1 - Orbit

View from above orbital plane
View from above orbital plane
View from above satellite
View from above satellite

Ground track
Ground track

The orbit data is extracted from the following two-line orbital elements,

1 26548U 00057D   17084.94432948 +.00000197 +00000-0 +37406-4 0  9991
2 26548 064.5499 260.5682 0040724 236.4776 123.2441 14.88959483893506
Epoch (UTC): 25 March 2017 22:39:50
Eccentricity: 0.0040724
inclination: 64.5499°
perigee height: 573 km
apogee height: 629 km
right ascension of ascending node: 260.5682°
argument of perigee: 236.4776°
revolutions per day: 14.88959483
mean anomaly at epoch: 123.2441°
orbit number at epoch: 89350

The dashed part of the orbit path shows where the satellite is in the earth's shadow,  

DLR